Location: Unspecified
(0.0000°N, 0.0000°E)
Time: 06:16:53

ISS - Pass Details

Date: 20 December 2017
Orbit: 403 x 406 km, 51.6° (Epoch: 20 March)

Event Time Altitude Azimuth Distance (km) Brightness Sun altitude
Rises 18:06:12 0° 337° (NNW) 2,315 0.0 -1.9°
Reaches altitude 10° 18:08:22 10° 345° (NNW) 1,456 -1.1 -2.4°
Maximum altitude 18:11:25 37° 54° (NE) 649 -3.3 -3.1°
Drops below altitude 10° 18:14:28 10° 124° (ESE) 1,457 -1.3 -3.8°
Sets 18:16:38 0° 132° (SE) 2,317 -0.2 -4.3°
